Simultaneous Nadir Overpasses (SNOs) Predictions

Prediction of SNOs between METOP-C and LANDSAT-8 Satellite Orbit:

Table of predicted SNOs for the next 14.0 days since TLE Epoch: 2/29/2020
Index Date (METOP-C) Time (METOP-C) Lat,Lon (METOP-C) SZA (METOP-C ) Date (LANDSAT-8) Time (LANDSAT-8) Lat,Lon (LANDSAT-8) SZA (LANDSAT-8 ) Distance(km) Time Diff (sec)
1 02/29/2020 17:54:48 -81.04, 129.44 89.81 02/29/2020 17:55:39 -81.04, 129.46 89.80 0.51 51
2 02/29/2020 18:45:26 81.08, -62.36 90.28 02/29/2020 18:45:04 81.07, -62.44 90.26 1.40 22
3 03/03/2020 13:29:11 -81.05,-163.89 90.84 03/03/2020 13:29:53 -81.05,-164.01 90.84 2.35 42
4 03/03/2020 14:19:50 81.07, 3.95 89.21 03/03/2020 14:19:18 81.08, 4.06 89.21 1.91 32
5 03/06/2020 09:03:35 -81.05, -97.60 91.92 03/06/2020 09:04:07 -81.05, -97.52 91.90 1.39 32
6 03/06/2020 09:54:13 81.08, 70.63 88.18 03/06/2020 09:53:32 81.08, 70.53 88.15 1.89 41
7 03/09/2020 04:37:57 -81.06, -30.95 92.97 03/09/2020 04:38:20 -81.05, -31.06 92.98 1.97 23
8 03/09/2020 05:28:36 81.08, 136.93 87.09 03/09/2020 05:27:45 81.08, 136.97 87.07 0.63 51
9 03/12/2020 00:12:21 -81.05, 35.32 94.07 03/12/2020 00:12:34 -81.05, 35.38 94.06 1.02 13




NCC Satellite Simultaneous Nadir Overpasses (SNOs) Prediction Service
